This demonstration page uses our WeatherBlox Daily Observations layout. Learn more.

Left ArrowRight Arrow

Hourly Observations for January 19, 2022

Temp ( °F °C ) Dew Point ( °F °C ) Humidity (%) Winds ( mph kmh ) Pressure ( in mb ) Visibility ( mi km ) Precip ( " mm )
12:53 am 00:53 Partly Cloudy 62 16.7 51 10.6 67 67 S 10 17 29.81 1010 10 16 0.00 0.00
1:53 am 01:53 Mostly Clear 61 16.1 52 11.1 72 72 S 13 20 29.80 1009 10 16 0.00 0.00
2:53 am 02:53 Mostly Clear 60 15.6 52 11.1 75 75 SSW 9 15 29.79 1009 10 16 0.00 0.00
3:53 am 03:53 Clear 60 15.6 52 11.1 75 75 VRB 7 11 29.78 1009 10 16 0.00 0.00
4:53 am 04:53 Clear 59 15 53 11.7 81 81 VRB 7 11 29.80 1009 10 16 0.00 0.00
5:53 am 05:53 Mostly Clear 57 13.9 52 11.1 83 83 SW 6 9 29.81 1010 10 16 0.00 0.00
6:53 am 06:53 Mostly Cloudy 56 13.3 52 11.1 87 87 SSW 9 15 29.83 1010 10 16 0.00 0.00
7:53 am 07:53 Mostly Sunny 56 13.3 52 11.1 87 87 SW 8 13 29.85 1011 10 16 0.00 0.00
8:53 am 08:53 Mostly Cloudy 57 13.9 53 11.7 87 87 SW 12 19 29.88 1012 10 16 0.00 0.00
9:53 am 09:53 Mostly Cloudy with Light Rain 57 13.9 52 11.1 83 83 Calm 29.89 1012 10 16 0.00 0.00
10:53 am 10:53 Mostly Cloudy with Light Rain 57 13.9 52 11.1 83 83 SSW 5 7 29.92 1013 10 16 0.01 0.25
11:53 am 11:53 Mostly Cloudy 56 13.3 39 3.9 53 53 NNW 17 28 29.93 1014 10 16 0.00 0.00
12:53 pm 12:53 Mostly Cloudy 53 11.7 39 3.9 59 59 NNW 13 20 29.94 1014 10 16 0.00 0.00
1:53 pm 13:53 Mostly Cloudy 53 11.7 43 6.1 69 69 NNW 13 20 29.97 1015 10 16 0.00 0.00
2:07 pm 14:07 Cloudy with Light Rain 51 10.6 44 6.7 77 77 NNW 14 22 29.99 1015 10 16 0.00 0.00
2:53 pm 14:53 Mostly Cloudy with Light Rain 51 10.6 43 6.1 74 74 NNW 14 22 29.98 1015 10 16 0.00 0.00
3:53 pm 15:53 Mostly Cloudy 52 11.1 41 5 66 66 NNW 16 26 30.01 1016 10 16 0.00 0.00
4:53 pm 16:53 Cloudy 49 9.4 38 3.3 66 66 N 22 35 30.05 1018 10 16 0.00 0.00
5:53 pm 17:53 Cloudy 46 7.8 35 1.7 66 66 N 16 26 30.08 1019 10 16 0.00 0.00
6:53 pm 18:53 Cloudy 43 6.1 32 0 65 65 N 18 30 30.15 1021 10 16 0.00 0.00
7:53 pm 19:53 Cloudy 41 5 28 -2.2 60 60 N 21 33 30.19 1023 10 16 0.00 0.00
8:49 pm 20:49 Cloudy 37 3 25 -4 60 60 N 24 39 30.25 1024 10 16 0.00 0.00
8:53 pm 20:53 Cloudy 38 3.3 23 -5 55 55 N 23 37 30.23 1024 10 16 0.00 0.00
9:53 pm 21:53 Cloudy 37 2.8 20 -6.7 50 50 N 20 31 30.24 1024 10 16 0.00 0.00
10:53 pm 22:53 Cloudy 37 2.8 17 -8.3 44 44 N 20 31 30.29 1026 10 16 0.00 0.00
11:53 pm 23:53 Cloudy 34 1.1 16 -8.9 48 48 N 17 28 30.32 1027 10 16 0.00 0.00

Powered by AerisWeather